User: anonymous   Login
Location: Unspecified
(35.9560°N, 0.0000°E)
Time: 19:30:43
(UTC+00:00)
Language:

Odin Start rocket - Orbit

View from above orbital plane
View from above orbital plane
View from above satellite
View from above satellite

Ground track
Ground track

The orbit is defined by the following mean orbital elements,

1 26703U          26088.16054625 +.00000000 +00000-0 +17841-3 0 00008
2 26703  97.6900 106.8607 0007231 277.4637  82.5768 15.07404518    09
Epoch (UTC): 29 March 2026 03:51:11
Eccentricity: 0.0007231
inclination: 97.6900°
perigee height: 539 km
apogee height: 549 km
right ascension of ascending node: 106.8607°
argument of perigee: 277.4637°
revolutions per day: 15.07404518
mean anomaly at epoch: 82.5768°

The dashed part of the orbit path shows where the satellite is in the earth's shadow,  

DLR